Theta_e
317 318 318 321 322 323 324 325 326 328 331 333 333 332 329 325 327 328 329 329 331 331 329 328 327 325 323 322 323 321 322 322 322 322 322 322 323 319 318 318 318 316 312
313 315 318 319 321 322 323 324 327 328 327 330 332 333 331 324 326 328 329 329 330 331 330 328 328 325 319 321 322 321 322 321 321 322 322 321 320 319 319 318 318 318 317
306 309 312 314 316 317 321 323 324 326 327 327 327 329 330 330 329 328 329 328 327 329 330 328 328 322 319 321 321 320 321 321 321 321 321 322 320 320 319 319 319 315 315
303 305 306 307 309 312 314 318 321 324 326 326 326 325 327 328 331 330 328 327 327 327 330 327 327 321 321 321 321 321 322 321 321 321 321 321 321 320 319 319 318 317 318
301 302 302 303 305 307 310 313 315 318 320 322 323 324 325 325 324 325 325 328 328 327 330 328 324 322 321 321 322 322 322 321 321 321 321 321 320 319 320 320 319 319 318
300 300 300 301 302 303 304 306 308 312 314 316 318 319 319 321 324 325 325 326 326 326 328 327 322 321 321 321 321 321 321 322 322 320 321 321 320 320 321 319 319 319 320
298 299 300 300 301 301 301 303 304 304 306 308 309 311 312 313 319 324 322 325 324 325 326 325 321 321 321 321 321 322 321 322 322 321 320 320 321 320 321 321 320 320 320
296 297 298 299 300 300 299 300 301 302 302 303 304 305 306 309 312 318 320 321 322 322 323 323 322 321 321 322 322 321 320 321 320 321 321 320 319 319 320 320 320 319 319
292 293 295 297 298 298 299 298 299 299 299 299 301 302 302 302 304 311 313 315 319 318 321 321 321 322 321 321 322 322 320 320 320 320 319 320 320 319 319 318 317 318 318
289 291 292 293 295 295 296 296 296 297 297 297 297 297 298 299 298 299 302 306 307 307 304 311 320 319 321 321 319 320 319 319 320 319 319 319 319 318 317 316 318 316 317
288 289 291 291 292 292 293 294 294 294 295 295 294 294 295 296 296 298 298 300 300 303 305 304 305 308 314 316 318 318 319 319 318 318 318 317 316 315 315 316 316 316 316
287 287 289 289 289 289 290 291 291 291 292 292 292 293 292 292 293 295 296 296 296 298 298 298 300 303 304 304 307 307 309 309 310 310 311 312 311 312 313 313 313 312 313
286 286 286 286 287 287 288 288 288 288 288 288 288 288 289 290 290 291 292 292 293 294 294 294 295 296 297 299 301 299 301 301 301 303 301 301 300 302 303 304 305 304 303
284 284 284 284 285 285 286 285 285 285 285 285 285 286 286 287 289 289 290 291 291 291 292 293 293 294 294 294 294 294 295 295 296 296 297 297 295 295 296 295 297 296 297
281 282 283 283 283 283 283 283 283 283 283 283 283 284 284 285 284 285 287 288 289 289 290 290 291 291 291 291 291 291 291 291 292 291 291 291 292 292 292 292 292 293 294
280 280 280 281 281 282 282 282 282 282 282 283 283 283 283 283 284 285 285 285 286 287 288 289 288 287 287 287 287 287 288 288 288 288 288 288 288 289 289 289 287 289 289
279 279 279 279 279 279 280 281 281 281 281 282 282 282 282 283 283 283 283 283 284 285 286 285 284 284 284 284 284 285 285 285 285 286 286 286 286 286 286 286 285 285 286
278 278 278 278 278 278 278 278 279 279 280 280 280 280 281 281 281 281 281 282 283 282 281 281 281 281 281 282 282 282 282 282 283 283 283 283 283 284 283 283 282 282 282
276 276 276 276 276 276 277 276 276 276 277 277 277 278 278 278 278 279 279 280 279 279 279 278 278 277 277 277 277 278 278 278 279 279 279 279 279 278 278 278 278 278 278
275 275 274 275 275 275 275 275 275 275 275 274 274 274 274 275 276 276 276 276 276 276 275 275 276 276 276 276 276 276 276 277 277 277 277 277 277 277 277 277 277 277 277
274 274 274 274 274 274 274 274 274 273 273 273 272 272 272 272 272 272 272 273 273 273 273 273 274 274 274 274 274 274 275 275 275 275 275 275 275 275 275 275 275 275 275
273 273 273 273 273 273 273 273 273 272 272 272 271 271 271 271 271 271 270 271 271 271 271 272 272 272 272 273 273 273 273 273 274 274 274 274 274 274 274 274 274 274 274
273 273 272 272 272 272 272 272 272 271 271 271 270 270 270 270 270 269 269 269 269 269 270 270 270 270 271 271 271 271 272 272 272 272 272 272 272 272 272 272 272 272 272
272 272 271 271 271 270 270 270 270 270 270 270 269 269 269 269 269 268 268 268 268 269 269 269 269 269 270 270 270 270 271 271 271 271 271 271 271 271 271 271 271 271 271
271 270 270 270 269 269 269 269 269 269 269 269 268 268 268 268 268 268 267 267 267 268 268 268 268 269 269 269 269 270 270 270 270 270 270 270 270 270 271 271 270 270 270
270 269 269 269 268 268 268 268 268 268 268 267 267 267 267 267 267 267 267 267 266 267 267 267 267 268 268 268 269 269 269 269 269 270 270 269 270 269 269 269 269 269 269
Wind_Speed
12 6 6 5 6 11 18 21 25 31 37 34 32 32 37 41 38 34 35 35 37 38 37 38 39 36 35 34 31 28 27 25 27 28 32 34 36 37 34 32 31 35 31
17 11 6 8 7 7 10 14 16 20 21 24 27 30 35 41 43 39 35 37 37 39 40 38 39 34 29 31 28 27 27 24 24 32 31 33 35 34 29 28 29 33 35
25 23 20 17 13 12 8 7 9 11 16 14 20 23 29 31 33 34 34 35 36 39 39 38 39 31 28 31 28 28 26 25 19 30 32 30 36 31 27 29 27 40 36
34 31 30 28 24 20 17 12 7 3 8 13 16 16 19 26 31 34 36 37 36 37 38 36 37 30 28 28 30 31 27 23 22 28 34 30 33 31 27 27 28 34 37
37 37 36 33 30 27 24 19 16 10 5 5 10 16 18 22 30 33 36 37 36 36 38 40 33 29 27 28 29 28 27 26 22 24 30 33 32 32 31 30 29 32 36
36 37 36 36 34 33 32 28 24 19 16 11 6 7 10 17 26 31 33 36 33 36 39 38 31 28 26 26 27 27 29 28 27 26 29 30 36 38 35 34 33 34 35
33 33 34 34 33 35 34 31 32 31 25 21 17 13 9 11 19 29 36 37 37 43 40 33 28 29 28 28 28 27 28 28 29 31 31 30 32 29 31 31 37 42 41
33 31 31 31 32 32 32 33 33 32 30 28 26 24 21 17 16 18 25 30 23 25 22 26 26 28 28 29 29 28 29 29 28 27 28 27 28 26 28 28 26 34 36
36 34 31 29 29 28 30 30 30 29 28 30 28 27 27 26 26 16 7 10 21 20 24 27 27 29 29 29 29 31 31 32 32 32 29 29 30 27 26 25 27 29 29
36 34 31 29 28 27 27 26 26 26 25 26 28 28 27 29 30 28 20 9 5 7 4 10 25 30 31 36 35 32 32 34 32 31 29 30 29 30 28 27 28 27 30
30 30 30 30 29 27 25 24 23 23 22 25 27 28 29 28 28 27 26 21 18 13 12 10 6 7 22 27 30 32 35 35 36 33 31 32 31 30 29 30 30 32 33
27 29 29 29 28 27 26 25 25 26 26 27 26 26 28 28 27 26 25 24 22 18 15 12 11 10 9 7 14 20 26 27 27 26 26 27 27 27 28 29 29 30 32
26 27 27 28 28 28 28 28 28 29 29 29 30 30 28 26 25 23 22 21 21 20 19 18 16 13 8 6 6 3 5 11 16 18 16 14 15 17 17 19 21 19 20
24 24 25 26 26 26 26 26 27 28 29 29 29 28 27 26 26 24 21 18 16 16 16 15 14 13 11 12 10 10 11 10 11 14 16 16 14 14 14 13 13 13 14
21 23 24 23 24 24 23 23 23 23 23 24 25 24 25 26 26 23 22 19 16 15 12 9 10 12 14 15 15 15 15 14 14 15 15 15 14 14 15 14 14 14 16
22 23 23 22 22 22 20 18 18 18 19 19 19 20 19 18 19 18 17 17 15 12 8 10 13 15 16 17 17 16 15 15 14 13 13 13 14 14 15 15 14 14 15
21 21 22 22 23 23 23 22 20 17 17 17 18 18 18 18 17 17 16 16 13 9 10 13 14 14 15 15 14 14 14 13 11 11 11 12 12 13 14 15 14 12 13
17 18 20 21 21 20 20 20 20 20 20 19 19 19 18 17 16 15 13 10 8 11 13 13 13 13 12 12 11 11 10 9 9 10 10 10 10 11 12 13 13 11 10
17 17 17 17 18 17 17 17 18 19 19 19 18 15 15 15 15 14 11 11 11 10 11 11 11 11 10 10 10 10 10 10 10 10 10 10 10 10 11 13 13 13 12
16 16 16 16 16 16 16 16 17 19 20 20 20 20 18 15 13 13 12 11 9 9 8 8 7 7 6 6 7 7 7 7 8 8 8 8 9 8 8 8 9 8 9
16 16 16 15 14 15 15 15 16 17 18 18 19 19 19 18 16 14 12 10 8 8 7 6 6 5 5 4 5 5 5 6 6 7 8 8 7 7 7 7 7 7 8
17 16 16 15 14 13 13 14 15 16 16 16 16 16 17 16 14 14 12 11 9 8 6 6 6 6 5 4 3 3 3 4 5 6 6 6 6 6 6 6 6 7 7
16 16 15 15 14 12 12 12 13 14 15 15 14 14 15 15 14 14 13 11 9 8 7 6 6 5 5 5 4 3 2 2 2 3 4 4 4 4 4 5 5 5 5
17 17 16 15 14 13 13 12 12 13 14 14 14 14 14 14 13 13 12 11 9 8 8 7 6 6 6 5 4 3 2 1 1 1 1 2 2 2 2 2 2 3 3
17 17 16 16 16 15 15 14 14 13 14 14 14 14 13 13 12 12 11 10 9 9 8 8 7 6 5 4 4 3 2 1 1 1 1 1 1 1 1 1 1 2 2
17 18 17 16 16 15 15 15 15 14 14 13 13 14 14 13 12 11 10 10 10 10 10 9 8 6 6 4 3 3 3 3 3 2 2 2 2 2 2 2 2 2 2
Wind_Direction
67 48 15 350 302 285 276 269 262 254 252 254 257 250 246 245 242 254 255 257 251 246 242 243 243 245 250 257 251 247 243 249 252 255 244 240 223 202 202 206 214 210 215
46 42 22 10 351 325 297 282 275 265 263 262 261 256 249 244 253 254 252 251 248 243 244 241 240 243 249 250 246 237 244 245 253 248 243 226 206 204 213 232 243 233 219
52 49 46 39 30 26 4 322 289 268 256 262 269 263 257 257 257 258 255 252 251 244 248 239 238 240 247 248 238 236 240 243 254 249 243 227 212 213 231 240 241 220 224
51 50 48 42 35 30 29 25 358 322 257 253 253 264 269 258 259 260 256 253 250 249 242 240 233 240 246 243 237 236 240 241 247 245 236 215 211 225 234 235 233 226 233
51 50 48 46 43 39 34 28 28 18 2 292 260 253 252 247 249 245 245 254 255 250 238 232 227 235 240 242 240 236 241 246 245 244 242 238 227 229 229 232 232 234 238
48 48 48 47 46 44 43 38 36 30 18 8 338 280 254 239 243 246 244 249 256 250 235 229 225 233 238 239 237 242 246 241 247 238 246 246 242 238 240 235 237 232 231
47 44 43 41 43 44 44 42 41 38 34 29 17 5 344 307 258 246 257 248 242 245 228 218 227 235 239 238 239 240 242 244 244 251 247 249 253 250 243 243 248 241 239
48 46 43 41 39 38 39 41 43 40 36 35 33 32 23 6 337 277 263 242 233 233 225 220 230 237 241 239 237 237 240 236 244 245 241 243 247 250 246 241 250 242 232
43 43 42 43 39 38 37 36 38 37 38 40 37 35 37 33 32 10 321 222 224 215 215 223 229 235 239 235 233 234 238 240 236 232 238 240 243 241 232 230 235 232 231
39 40 41 41 40 40 39 35 36 37 37 39 39 39 38 39 37 37 37 43 15 340 322 214 224 233 227 235 233 229 237 237 235 236 238 231 227 232 240 236 231 234 228
39 38 40 40 39 39 39 37 34 36 38 38 38 38 38 37 37 37 36 37 35 27 8 350 344 276 239 225 223 227 233 229 225 222 224 221 232 234 230 223 228 229 230
41 41 39 37 38 39 38 38 37 35 35 37 35 36 36 35 35 35 36 39 36 33 37 29 17 4 355 310 247 234 223 225 218 212 215 216 218 220 222 224 223 224 224
36 37 36 34 33 31 30 32 33 32 30 30 30 28 27 28 30 31 32 33 34 35 33 23 20 25 39 65 85 106 188 207 205 209 207 193 191 196 204 206 211 212 215
33 32 33 31 28 26 26 26 25 26 26 24 24 23 20 20 21 22 22 22 30 32 30 31 35 38 50 64 81 98 110 127 147 153 150 152 149 149 146 143 144 149 157
28 28 29 27 27 26 23 23 23 24 19 17 18 15 14 15 15 13 15 21 23 27 27 44 60 66 68 73 79 84 90 102 116 120 125 132 138 141 139 134 129 127 127
25 25 23 21 21 21 23 26 22 20 16 14 11 8 11 9 6 8 17 22 22 30 26 49 60 64 68 70 76 82 86 91 96 102 106 109 111 116 122 121 120 121 121
19 18 16 15 13 12 13 15 17 22 16 10 9 8 8 4 10 15 15 21 18 18 38 54 59 64 67 70 74 77 81 85 92 95 96 98 103 111 117 116 114 113 123
13 12 11 9 8 7 8 8 6 8 9 10 9 4 358 358 9 9 13 4 10 34 51 54 55 56 60 64 71 78 84 90 93 95 99 98 101 107 111 109 107 114 125
8 9 8 6 4 3 2 3 5 6 7 6 3 1 1 1 359 353 359 13 31 39 44 44 50 56 59 61 65 70 75 84 88 95 100 103 106 113 122 128 134 138 137
4 3 0 359 358 359 0 1 2 5 4 6 6 7 5 3 357 359 5 12 20 31 39 43 45 46 49 58 66 71 74 81 89 94 100 106 113 121 124 129 134 138 142
357 357 357 357 355 357 356 357 359 359 2 3 4 6 8 7 8 7 6 6 10 15 18 23 25 30 41 54 69 82 91 101 108 109 108 111 115 123 127 130 132 136 142
356 356 356 356 354 349 349 349 351 352 354 355 358 359 2 5 9 9 7 7 9 11 8 13 19 21 24 31 46 65 86 100 109 115 116 117 119 118 118 122 124 129 134
352 353 353 353 351 346 338 336 338 342 345 347 349 351 354 358 3 6 8 7 6 8 6 14 19 21 20 25 35 49 66 90 116 128 129 128 126 125 124 125 126 128 132
352 351 351 350 349 346 342 336 332 331 332 334 336 338 340 342 346 350 353 356 359 6 9 6 4 7 12 15 18 20 28 46 87 133 166 162 158 154 145 134 129 125 128
351 350 350 349 349 349 346 340 335 331 329 330 331 332 331 331 335 342 345 347 347 346 348 354 358 358 355 356 0 2 8 333 318 294 246 219 211 200 184 174 167 163 162
350 350 347 346 346 343 342 342 340 334 329 328 327 326 325 324 323 326 330 334 337 337 337 336 338 344 349 346 344 335 318 306 291 273 267 258 251 249 242 230 212 198 189